Weather History for Hatteras, NC

Change the Weather History Date:

Sunday, December 23, 2012

  Actual Average Record
Temperature  
Mean Temperature 47 °F 48 °F  
Max Temperature 52 °F 54 °F 75 °F (1990)
Min Temperature 41 °F 41 °F 23 °F (1989)
Degree Days  
Heating Degree Days 18 18  
Month to date heating degree days 220 343  
Since 1 July heating degree days 657 661  
Cooling Degree Days 0 0  
Month to date cooling degree days 0 0  
Year to date cooling degree days 2090 1711  
Moisture  
Dew Point 31 °F    
Average Humidity 62    
Maximum Humidity 83    
Minimum Humidity 41    
Precipitation  
Precipitation 0.00 in 0.14 in 2.94 in (1980)
Month to date precipitation 3.35 3.14  
Year to date precipitation 54.60 56.91  
Snow  
Snow 0.00 in - - ()
Month to date snowfall 0.0  
Since 1 July snowfall 0.0  
Snow Depth 0.00 in    
Sea Level Pressure  
Sea Level Pressure 30.09 in    
Wind  
Wind Speed 7 mph (WNW)    
Max Wind Speed 12 mph    
Max Gust Speed 17 mph    
Visibility 10 miles    
Events      
T = Trace of Precipitation, MM = Missing Value Source: NWS Daily Summary

Daily Weather History Graph

Daily Weather History Graph

Search for Another Location

Airport:

Trip Planner

Search our weather history database for the weather conditions in past years. The results will help you decide how hot, cold, wet, or windy it might be!

Date:

Astronomy

Dec. 23, 2012 Rise Set
Actual Time 7:08 AM EST 4:55 PM EST
Civil Twilight 6:40 AM EST 5:23 PM EST
Nautical Twilight 6:08 AM EST 5:55 PM EST
Astronomical Twilight 5:37 AM EST 6:26 PM EST
Moon 1:40 PM EST (12/23) 2:53 AM EST (12/23)
Length of Visible Light 10h 43m
Length of Day
9h 47m
Waxing Gibbous, 81% of the Moon is Illuminated
Dec 23
Waxing Gibbous
Dec 28
Full
Jan 4
Last Quarter
Jan 11
New
Jan 18
First Quarter

Hourly Weather History & Observations

Time (EST) Temp. Windchill Dew Point Humidity Pressure Visibility Wind Dir Wind Speed Gust Speed Precip Events Conditions
12:51 AM 46.0 °F 41.9 °F 33.1 °F 61% 30.08 in 10.0 mi West 8.1 mph - N/A   Clear
1:51 AM 46.0 °F 41.9 °F 33.1 °F 61% 30.09 in 10.0 mi WNW 8.1 mph - N/A   Clear
2:51 AM 45.0 °F 41.2 °F 30.9 °F 58% 30.09 in 10.0 mi WNW 6.9 mph - N/A   Clear
3:51 AM 44.1 °F 40.8 °F 28.9 °F 55% 30.09 in 10.0 mi NW 5.8 mph - N/A   Clear
4:51 AM 43.0 °F 40.3 °F 28.0 °F 56% 30.10 in 10.0 mi NW 4.6 mph - N/A   Clear
5:51 AM 41.0 °F 39.0 °F 28.0 °F 60% 30.10 in 10.0 mi NW 3.5 mph - N/A   Clear
6:51 AM 41.0 °F 37.1 °F 25.0 °F 53% 30.13 in 10.0 mi NW 5.8 mph - N/A   Clear
7:51 AM 42.1 °F 39.2 °F 27.0 °F 55% 30.14 in 10.0 mi WNW 4.6 mph - N/A   Clear
8:51 AM 44.1 °F 40.1 °F 25.0 °F 47% 30.16 in 10.0 mi NW 6.9 mph - N/A   Clear
9:51 AM 46.0 °F 43.1 °F 25.0 °F 44% 30.17 in 10.0 mi WNW 5.8 mph - N/A   Clear
10:51 AM 46.9 °F - 25.0 °F 42% 30.16 in 10.0 mi Variable 5.8 mph - N/A   Clear
11:51 AM 48.0 °F - 27.0 °F 44% 30.12 in 10.0 mi West 8.1 mph - N/A   Clear
12:51 PM 48.9 °F - 27.0 °F 43% 30.09 in 10.0 mi WSW 8.1 mph - N/A   Clear
1:51 PM 48.9 °F - 28.9 °F 46% 30.08 in 10.0 mi West 6.9 mph - N/A   Clear
2:51 PM 48.0 °F - 28.9 °F 48% 30.07 in 10.0 mi West 8.1 mph - N/A   Clear
3:51 PM 48.9 °F - 34.0 °F 56% 30.06 in 10.0 mi WSW 6.9 mph - N/A   Clear
4:51 PM 50.0 °F - 32.0 °F 50% 30.07 in 10.0 mi WSW 9.2 mph - N/A   Clear
5:51 PM 51.1 °F - 28.9 °F 43% 30.07 in 10.0 mi WSW 9.2 mph - N/A   Clear
6:51 PM 51.1 °F - 30.0 °F 44% 30.07 in 10.0 mi West 6.9 mph - N/A   Clear
7:51 PM 48.9 °F - 35.1 °F 59% 30.06 in 10.0 mi WNW 3.5 mph - N/A   Clear
8:51 PM 46.9 °F - 39.0 °F 74% 30.06 in 10.0 mi NW 5.8 mph - N/A   Clear
9:51 PM 45.0 °F 42.6 °F 39.9 °F 82% 30.08 in 10.0 mi WNW 4.6 mph - N/A   Clear
10:51 PM 48.0 °F - 39.0 °F 71% 30.07 in 10.0 mi West 6.9 mph - N/A   Clear
11:51 PM 46.9 °F - 39.9 °F 77% 30.06 in 10.0 mi West 5.8 mph - N/A   Clear